QPF
0.10 0.09 0.10 0.16 0.15 0.11 0.09 0.03 0.04 0.04 0.03 0.03 0.03 0.03 0.03 0.02 0.03 0.02 0.03 0.03 0.04 0.06 0.06 0.05 0.05 0.05 0.06 0.07 0.08 0.08 0.14 0.15 0.12 0.11 0.11 0.11 0.08 0.06 0.07 0.11 0.12 0.11 0.11
0.07 0.06 0.08 0.10 0.11 0.07 0.06 0.03 0.03 0.03 0.03 0.03 0.03 0.03 0.03 0.02 0.02 0.03 0.04 0.04 0.04 0.04 0.03 0.02 0.02 0.03 0.03 0.04 0.05 0.05 0.06 0.09 0.10 0.10 0.09 0.09 0.08 0.06 0.06 0.10 0.12 0.11 0.10
0.04 0.04 0.06 0.05 0.06 0.06 0.04 0.03 0.03 0.03 0.02 0.01 0.02 0.03 0.03 0.03 0.03 0.04 0.04 0.02 0.01 0.01 0.01 0.00 0.01 0.01 0.02 0.02 0.04 0.06 0.06 0.07 0.08 0.09 0.09 0.08 0.08 0.07 0.07 0.08 0.10 0.11 0.11
0.04 0.04 0.05 0.07 0.07 0.04 0.03 0.03 0.04 0.03 0.02 0.02 0.02 0.02 0.02 0.03 0.03 0.03 0.02 0.01 0.01 0.00 0.01 0.01 0.01 0.01 0.02 0.03 0.04 0.06 0.08 0.09 0.10 0.11 0.11 0.08 0.08 0.09 0.09 0.08 0.08 0.08 0.08
0.07 0.05 0.04 0.05 0.07 0.04 0.03 0.07 0.10 0.07 0.03 0.02 0.01 0.01 0.01 0.01 0.02 0.02 0.02 0.02 0.02 0.02 0.02 0.02 0.01 0.02 0.02 0.03 0.03 0.04 0.06 0.07 0.09 0.11 0.11 0.11 0.11 0.10 0.07 0.06 0.07 0.07 0.07
0.05 0.03 0.04 0.03 0.03 0.02 0.02 0.02 0.02 0.03 0.02 0.02 0.02 0.01 0.01 0.01 0.01 0.01 0.01 0.02 0.03 0.03 0.03 0.03 0.02 0.03 0.03 0.02 0.02 0.04 0.05 0.05 0.06 0.07 0.09 0.11 0.11 0.09 0.07 0.05 0.05 0.06 0.06
0.04 0.02 0.02 0.02 0.01 0.01 0.01 0.01 0.01 0.01 0.01 0.02 0.03 0.02 0.01 0.01 0.01 0.01 0.02 0.03 0.04 0.03 0.03 0.04 0.04 0.03 0.02 0.03 0.04 0.04 0.03 0.02 0.03 0.04 0.06 0.08 0.11 0.10 0.09 0.07 0.06 0.05 0.05
0.03 0.02 0.01 0.01 0.01 0.01 0.01 0.01 0.01 0.01 0.01 0.02 0.03 0.02 0.02 0.02 0.02 0.02 0.02 0.02 0.03 0.03 0.04 0.04 0.03 0.03 0.03 0.03 0.05 0.06 0.05 0.03 0.03 0.03 0.05 0.08 0.10 0.09 0.09 0.08 0.08 0.07 0.06
0.03 0.02 0.01 0.01 0.01 0.01 0.01 0.02 0.03 0.02 0.02 0.02 0.02 0.03 0.03 0.03 0.03 0.03 0.02 0.03 0.02 0.03 0.03 0.02 0.02 0.02 0.02 0.03 0.04 0.06 0.08 0.05 0.04 0.04 0.06 0.08 0.07 0.07 0.08 0.07 0.07 0.07 0.06
0.04 0.02 0.01 0.00 0.00 0.00 0.01 0.01 0.02 0.01 0.01 0.01 0.01 0.01 0.01 0.01 0.02 0.02 0.03 0.03 0.03 0.02 0.02 0.01 0.01 0.02 0.02 0.03 0.03 0.03 0.03 0.04 0.04 0.04 0.04 0.05 0.06 0.08 0.08 0.08 0.07 0.07 0.06
0.05 0.02 0.01 0.01 0.00 0.00 0.00 0.00 0.00 0.00 0.00 0.00 0.00 0.00 0.01 0.01 0.02 0.02 0.03 0.03 0.03 0.02 0.02 0.01 0.01 0.02 0.03 0.03 0.03 0.03 0.03 0.03 0.04 0.03 0.03 0.05 0.06 0.07 0.07 0.07 0.06 0.05 0.04
0.05 0.03 0.02 0.01 0.01 0.01 0.01 0.00 0.00 0.00 0.00 0.01 0.01 0.01 0.01 0.01 0.02 0.02 0.03 0.03 0.02 0.01 0.01 0.01 0.01 0.00 0.01 0.02 0.02 0.02 0.02 0.03 0.04 0.04 0.03 0.04 0.05 0.05 0.05 0.05 0.04 0.04 0.03
0.05 0.04 0.03 0.02 0.01 0.01 0.01 0.01 0.01 0.01 0.01 0.01 0.00 0.00 0.01 0.01 0.01 0.01 0.02 0.03 0.03 0.02 0.01 0.01 0.01 0.00 0.00 0.01 0.01 0.02 0.02 0.03 0.03 0.03 0.04 0.05 0.06 0.05 0.05 0.04 0.03 0.03 0.03
0.03 0.03 0.03 0.03 0.02 0.02 0.01 0.02 0.01 0.01 0.01 0.01 0.01 0.01 0.01 0.01 0.01 0.01 0.01 0.02 0.02 0.02 0.02 0.02 0.01 0.00 0.00 0.01 0.01 0.01 0.02 0.02 0.03 0.04 0.04 0.05 0.06 0.05 0.06 0.05 0.04 0.03 0.03
0.03 0.03 0.03 0.03 0.03 0.02 0.02 0.02 0.01 0.01 0.01 0.02 0.01 0.01 0.02 0.01 0.02 0.01 0.01 0.01 0.01 0.01 0.01 0.01 0.01 0.00 0.01 0.01 0.02 0.02 0.02 0.02 0.04 0.06 0.06 0.06 0.07 0.07 0.07 0.06 0.05 0.03 0.03
0.03 0.03 0.04 0.04 0.03 0.02 0.01 0.01 0.01 0.01 0.02 0.02 0.01 0.01 0.01 0.01 0.01 0.01 0.02 0.01 0.01 0.00 0.00 0.00 0.01 0.01 0.02 0.03 0.04 0.03 0.03 0.03 0.04 0.06 0.08 0.08 0.09 0.09 0.07 0.06 0.06 0.04 0.03
0.03 0.03 0.03 0.03 0.02 0.02 0.01 0.01 0.01 0.01 0.01 0.02 0.01 0.01 0.01 0.00 0.01 0.01 0.01 0.01 0.01 0.01 0.01 0.01 0.02 0.02 0.04 0.06 0.06 0.06 0.05 0.06 0.06 0.06 0.07 0.08 0.08 0.08 0.06 0.05 0.04 0.04 0.03
0.02 0.02 0.02 0.02 0.03 0.02 0.01 0.01 0.01 0.01 0.01 0.02 0.01 0.01 0.01 0.00 0.01 0.01 0.01 0.01 0.01 0.01 0.01 0.02 0.03 0.04 0.06 0.07 0.07 0.07 0.07 0.07 0.08 0.07 0.06 0.06 0.05 0.06 0.05 0.03 0.03 0.03 0.03
0.03 0.03 0.03 0.02 0.02 0.02 0.01 0.01 0.01 0.01 0.02 0.02 0.01 0.01 0.01 0.01 0.01 0.02 0.02 0.01 0.01 0.02 0.02 0.02 0.02 0.04 0.06 0.07 0.07 0.07 0.07 0.07 0.08 0.05 0.05 0.05 0.04 0.05 0.05 0.03 0.03 0.02 0.02
0.03 0.03 0.03 0.03 0.03 0.02 0.01 0.02 0.01 0.02 0.02 0.02 0.02 0.01 0.01 0.01 0.01 0.02 0.02 0.02 0.02 0.02 0.02 0.02 0.02 0.03 0.03 0.04 0.04 0.04 0.04 0.04 0.04 0.02 0.02 0.03 0.03 0.04 0.04 0.02 0.02 0.02 0.01
0.03 0.03 0.03 0.03 0.04 0.04 0.02 0.02 0.02 0.02 0.02 0.02 0.02 0.03 0.02 0.01 0.01 0.01 0.02 0.02 0.02 0.02 0.01 0.01 0.01 0.02 0.03 0.02 0.02 0.02 0.02 0.03 0.03 0.02 0.01 0.01 0.02 0.04 0.04 0.02 0.02 0.02 0.01
0.03 0.03 0.03 0.03 0.04 0.04 0.03 0.03 0.02 0.02 0.02 0.01 0.01 0.02 0.01 0.01 0.01 0.01 0.01 0.01 0.01 0.01 0.01 0.01 0.01 0.01 0.02 0.02 0.02 0.02 0.02 0.02 0.02 0.02 0.01 0.02 0.02 0.02 0.02 0.01 0.01 0.01 0.01
0.03 0.02 0.02 0.01 0.02 0.03 0.02 0.02 0.02 0.01 0.01 0.01 0.01 0.01 0.01 0.01 0.01 0.01 0.01 0.01 0.01 0.01 0.01 0.01 0.01 0.00 0.01 0.01 0.01 0.01 0.01 0.01 0.02 0.01 0.02 0.02 0.02 0.02 0.01 0.01 0.01 0.01 0.01
0.02 0.01 0.01 0.01 0.02 0.02 0.01 0.01 0.01 0.01 0.01 0.01 0.01 0.01 0.00 0.00 0.00 0.00 0.01 0.01 0.01 0.01 0.01 0.01 0.00 0.00 0.00 0.00 0.00 0.00 0.00 0.01 0.01 0.00 0.00 0.01 0.01 0.01 0.01 0.01 0.01 0.01 0.01
0.03 0.02 0.02 0.02 0.01 0.01 0.00 0.00 0.01 0.01 0.01 0.00 0.00 0.01 0.00 0.00 0.00 0.00 0.00 0.01 0.00 0.00 0.00 0.00 0.00 0.00 0.00 0.00 0.00 0.00 0.00 0.00 0.00 0.00 0.00 0.00 0.00 0.00 0.00 0.00 0.01 0.00 0.01
0.04 0.03 0.03 0.02 0.01 0.01 0.00 0.00 0.00 0.00 0.00 0.00 0.00 0.00 0.00 0.00 0.00 0.00 0.00 0.00 0.00 0.00 0.00 0.00 0.00 0.00 0.00 0.00 0.00 0.00 0.00 0.00 0.00 0.00 0.00 0.00 0.00 0.00 0.00 0.01 0.01 0.01 0.01
MSLP
1014.20 1014.49 1014.63 1014.62 1014.47 1014.23 1013.96 1013.74 1013.60 1013.59 1013.71 1013.91 1014.17 1014.41 1014.61 1014.73 1014.77 1014.77 1014.77 1014.80 1014.91 1015.12 1015.41 1015.76 1016.14 1016.49 1016.80 1017.03 1017.19 1017.31 1017.42 1017.55 1017.73 1017.97 1018.25 1018.56 1018.84 1019.07 1019.22 1019.28 1019.27 1019.21 1019.16
1013.92 1014.30 1014.55 1014.64 1014.57 1014.40 1014.19 1014.00 1013.90 1013.92 1014.04 1014.25 1014.48 1014.69 1014.83 1014.89 1014.85 1014.78 1014.70 1014.69 1014.77 1014.97 1015.28 1015.66 1016.06 1016.44 1016.75 1016.97 1017.11 1017.20 1017.27 1017.38 1017.56 1017.81 1018.13 1018.49 1018.84 1019.14 1019.35 1019.47 1019.50 1019.48 1019.45
1013.60 1014.08 1014.45 1014.65 1014.71 1014.63 1014.50 1014.37 1014.31 1014.35 1014.48 1014.69 1014.90 1015.08 1015.18 1015.17 1015.08 1014.93 1014.80 1014.74 1014.79 1014.97 1015.27 1015.66 1016.06 1016.43 1016.72 1016.91 1017.01 1017.05 1017.09 1017.17 1017.33 1017.59 1017.94 1018.34 1018.75 1019.13 1019.42 1019.62 1019.73 1019.77 1019.79
1013.29 1013.87 1014.35 1014.69 1014.86 1014.89 1014.84 1014.78 1014.77 1014.83 1014.98 1015.18 1015.39 1015.54 1015.60 1015.56 1015.42 1015.23 1015.05 1014.95 1014.96 1015.11 1015.38 1015.74 1016.11 1016.45 1016.70 1016.84 1016.90 1016.89 1016.88 1016.92 1017.06 1017.32 1017.68 1018.12 1018.59 1019.04 1019.42 1019.71 1019.92 1020.05 1020.14
1013.05 1013.70 1014.29 1014.75 1015.03 1015.17 1015.21 1015.21 1015.24 1015.33 1015.49 1015.69 1015.89 1016.03 1016.08 1016.01 1015.84 1015.63 1015.42 1015.28 1015.25 1015.36 1015.58 1015.88 1016.20 1016.48 1016.68 1016.77 1016.77 1016.71 1016.66 1016.66 1016.77 1017.01 1017.38 1017.84 1018.36 1018.87 1019.34 1019.73 1020.03 1020.26 1020.44
1012.93 1013.64 1014.32 1014.87 1015.25 1015.48 1015.59 1015.64 1015.70 1015.81 1015.98 1016.18 1016.38 1016.52 1016.56 1016.49 1016.32 1016.10 1015.87 1015.69 1015.62 1015.67 1015.83 1016.06 1016.31 1016.52 1016.65 1016.69 1016.64 1016.53 1016.44 1016.40 1016.48 1016.70 1017.06 1017.53 1018.07 1018.63 1019.16 1019.64 1020.03 1020.36 1020.64
1012.94 1013.70 1014.44 1015.06 1015.52 1015.81 1015.97 1016.06 1016.14 1016.26 1016.43 1016.64 1016.84 1016.99 1017.04 1016.99 1016.83 1016.60 1016.36 1016.16 1016.04 1016.02 1016.10 1016.25 1016.42 1016.56 1016.62 1016.60 1016.50 1016.36 1016.23 1016.17 1016.22 1016.41 1016.74 1017.20 1017.74 1018.32 1018.90 1019.43 1019.91 1020.33 1020.70
1013.07 1013.87 1014.65 1015.32 1015.82 1016.15 1016.35 1016.46 1016.56 1016.68 1016.85 1017.06 1017.27 1017.43 1017.51 1017.48 1017.34 1017.13 1016.88 1016.65 1016.48 1016.39 1016.39 1016.45 1016.53 1016.59 1016.59 1016.52 1016.39 1016.22 1016.07 1015.98 1016.00 1016.15 1016.45 1016.87 1017.39 1017.96 1018.56 1019.13 1019.67 1020.17 1020.62
1013.28 1014.11 1014.92 1015.62 1016.15 1016.50 1016.71 1016.83 1016.94 1017.06 1017.23 1017.45 1017.67 1017.85 1017.96 1017.96 1017.85 1017.65 1017.40 1017.15 1016.93 1016.78 1016.69 1016.66 1016.66 1016.64 1016.58 1016.47 1016.31 1016.13 1015.96 1015.85 1015.84 1015.96 1016.21 1016.58 1017.06 1017.60 1018.18 1018.77 1019.34 1019.89 1020.42
1013.51 1014.37 1015.20 1015.91 1016.45 1016.81 1017.03 1017.16 1017.27 1017.40 1017.58 1017.81 1018.05 1018.26 1018.40 1018.43 1018.35 1018.17 1017.92 1017.65 1017.39 1017.17 1017.01 1016.90 1016.81 1016.73 1016.62 1016.48 1016.31 1016.11 1015.94 1015.82 1015.78 1015.86 1016.06 1016.37 1016.78 1017.27 1017.82 1018.39 1018.98 1019.56 1020.13
1013.72 1014.60 1015.44 1016.15 1016.69 1017.06 1017.28 1017.42 1017.54 1017.69 1017.89 1018.14 1018.41 1018.65 1018.82 1018.89 1018.84 1018.68 1018.43 1018.14 1017.85 1017.58 1017.35 1017.17 1017.02 1016.88 1016.73 1016.57 1016.39 1016.19 1016.02 1015.89 1015.83 1015.87 1016.01 1016.25 1016.59 1017.02 1017.51 1018.05 1018.62 1019.21 1019.81
1013.91 1014.79 1015.62 1016.32 1016.86 1017.22 1017.46 1017.62 1017.77 1017.95 1018.18 1018.46 1018.75 1019.02 1019.23 1019.33 1019.30 1019.16 1018.92 1018.62 1018.30 1017.99 1017.72 1017.48 1017.28 1017.10 1016.92 1016.74 1016.56 1016.37 1016.20 1016.07 1015.99 1015.99 1016.07 1016.25 1016.52 1016.86 1017.29 1017.77 1018.31 1018.89 1019.51
1014.10 1014.97 1015.77 1016.45 1016.97 1017.33 1017.59 1017.78 1017.97 1018.19 1018.46 1018.77 1019.10 1019.40 1019.62 1019.75 1019.74 1019.61 1019.38 1019.08 1018.74 1018.41 1018.09 1017.82 1017.59 1017.38 1017.19 1017.00 1016.82 1016.64 1016.47 1016.34 1016.24 1016.21 1016.24 1016.35 1016.55 1016.82 1017.17 1017.59 1018.09 1018.64 1019.24
1014.34 1015.17 1015.93 1016.57 1017.07 1017.43 1017.71 1017.94 1018.17 1018.44 1018.75 1019.10 1019.45 1019.77 1020.01 1020.14 1020.15 1020.03 1019.80 1019.49 1019.15 1018.80 1018.48 1018.18 1017.93 1017.71 1017.51 1017.33 1017.15 1016.98 1016.82 1016.68 1016.57 1016.51 1016.50 1016.55 1016.68 1016.87 1017.15 1017.51 1017.94 1018.45 1019.02
1014.69 1015.46 1016.16 1016.75 1017.22 1017.58 1017.88 1018.15 1018.43 1018.75 1019.10 1019.47 1019.84 1020.16 1020.40 1020.53 1020.52 1020.40 1020.17 1019.87 1019.52 1019.17 1018.84 1018.55 1018.29 1018.07 1017.87 1017.70 1017.53 1017.37 1017.21 1017.07 1016.95 1016.86 1016.81 1016.82 1016.89 1017.02 1017.23 1017.52 1017.89 1018.35 1018.87
1015.20 1015.89 1016.51 1017.04 1017.48 1017.84 1018.16 1018.47 1018.79 1019.14 1019.52 1019.91 1020.28 1020.58 1020.80 1020.90 1020.87 1020.73 1020.50 1020.19 1019.86 1019.51 1019.19 1018.91 1018.66 1018.45 1018.26 1018.10 1017.94 1017.79 1017.64 1017.49 1017.36 1017.26 1017.18 1017.15 1017.17 1017.25 1017.40 1017.63 1017.94 1018.33 1018.80
1015.87 1016.47 1017.01 1017.48 1017.89 1018.24 1018.58 1018.91 1019.27 1019.65 1020.04 1020.42 1020.77 1021.04 1021.22 1021.28 1021.22 1021.05 1020.80 1020.49 1020.16 1019.83 1019.53 1019.26 1019.03 1018.84 1018.67 1018.52 1018.37 1018.23 1018.09 1017.94 1017.81 1017.69 1017.60 1017.54 1017.52 1017.56 1017.66 1017.83 1018.09 1018.42 1018.83
1016.67 1017.19 1017.65 1018.06 1018.43 1018.78 1019.12 1019.48 1019.85 1020.24 1020.63 1020.99 1021.30 1021.53 1021.65 1021.66 1021.56 1021.36 1021.09 1020.78 1020.46 1020.15 1019.86 1019.62 1019.42 1019.25 1019.10 1018.97 1018.84 1018.70 1018.57 1018.43 1018.30 1018.17 1018.07 1017.99 1017.95 1017.96 1018.02 1018.16 1018.36 1018.64 1018.99
1017.53 1017.97 1018.36 1018.73 1019.07 1019.40 1019.75 1020.11 1020.49 1020.88 1021.25 1021.58 1021.85 1022.02 1022.08 1022.04 1021.90 1021.67 1021.39 1021.08 1020.77 1020.48 1020.23 1020.01 1019.84 1019.69 1019.57 1019.46 1019.34 1019.22 1019.10 1018.97 1018.84 1018.71 1018.60 1018.52 1018.47 1018.46 1018.50 1018.61 1018.77 1019.01 1019.31
1018.36 1018.73 1019.07 1019.39 1019.71 1020.03 1020.38 1020.74 1021.12 1021.49 1021.84 1022.13 1022.35 1022.48 1022.50 1022.41 1022.24 1022.00 1021.71 1021.41 1021.12 1020.86 1020.63 1020.45 1020.31 1020.19 1020.09 1019.99 1019.90 1019.79 1019.68 1019.56 1019.43 1019.32 1019.21 1019.12 1019.07 1019.05 1019.09 1019.17 1019.31 1019.51 1019.77
1019.08 1019.40 1019.69 1019.98 1020.27 1020.59 1020.92 1021.28 1021.65 1022.00 1022.32 1022.59 1022.77 1022.86 1022.85 1022.75 1022.57 1022.33 1022.06 1021.78 1021.52 1021.29 1021.10 1020.94 1020.82 1020.73 1020.65 1020.57 1020.49 1020.40 1020.30 1020.19 1020.07 1019.96 1019.87 1019.79 1019.74 1019.72 1019.75 1019.82 1019.94 1020.12 1020.34
1019.64 1019.92 1020.17 1020.43 1020.71 1021.00 1021.32 1021.67 1022.02 1022.35 1022.66 1022.90 1023.06 1023.14 1023.13 1023.03 1022.87 1022.65 1022.42 1022.18 1021.96 1021.76 1021.60 1021.48 1021.38 1021.31 1021.24 1021.18 1021.10 1021.02 1020.93 1020.83 1020.72 1020.62 1020.53 1020.46 1020.41 1020.40 1020.42 1020.49 1020.60 1020.76 1020.95
1020.04 1020.27 1020.50 1020.73 1020.98 1021.25 1021.56 1021.88 1022.21 1022.53 1022.82 1023.05 1023.22 1023.31 1023.32 1023.25 1023.13 1022.97 1022.78 1022.59 1022.42 1022.26 1022.13 1022.03 1021.95 1021.88 1021.82 1021.76 1021.69 1021.61 1021.52 1021.43 1021.33 1021.23 1021.15 1021.08 1021.04 1021.02 1021.05 1021.11 1021.21 1021.34 1021.51
1020.29 1020.49 1020.69 1020.89 1021.11 1021.36 1021.64 1021.94 1022.25 1022.56 1022.84 1023.07 1023.25 1023.37 1023.42 1023.41 1023.35 1023.25 1023.13 1023.00 1022.87 1022.76 1022.65 1022.57 1022.49 1022.42 1022.35 1022.28 1022.21 1022.12 1022.03 1021.93 1021.83 1021.73 1021.65 1021.58 1021.54 1021.52 1021.54 1021.59 1021.67 1021.79 1021.93
1020.45 1020.62 1020.78 1020.96 1021.15 1021.38 1021.63 1021.90 1022.19 1022.48 1022.76 1023.00 1023.21 1023.36 1023.47 1023.52 1023.53 1023.50 1023.45 1023.38 1023.30 1023.21 1023.13 1023.05 1022.96 1022.88 1022.79 1022.70 1022.61 1022.51 1022.40 1022.29 1022.18 1022.08 1021.99 1021.92 1021.87 1021.84 1021.84 1021.88 1021.95 1022.04 1022.16
1020.57 1020.71 1020.85 1021.00 1021.17 1021.37 1021.59 1021.84 1022.11 1022.38 1022.65 1022.90 1023.13 1023.32 1023.48 1023.60 1023.68 1023.72 1023.72 1023.71 1023.66 1023.60 1023.53 1023.44 1023.34 1023.23 1023.12 1023.00 1022.87 1022.75 1022.62 1022.49 1022.37 1022.26 1022.15 1022.06 1022.00 1021.96 1021.94 1021.96 1022.00 1022.07 1022.16
Thickness
5704 5704 5704 5703 5700 5698 5697 5696 5696 5695 5695 5693 5692 5690 5687 5686 5684 5683 5682 5681 5680 5680 5679 5678 5678 5677 5677 5676 5676 5676 5676 5675 5675 5672 5670 5672 5673 5674 5674 5675 5676 5676 5677
5700 5699 5697 5696 5693 5691 5689 5688 5688 5688 5688 5687 5686 5684 5681 5678 5676 5675 5674 5673 5673 5672 5672 5670 5670 5669 5669 5669 5668 5668 5667 5667 5667 5664 5661 5660 5662 5664 5665 5666 5667 5667 5668
5699 5696 5693 5689 5687 5683 5682 5681 5680 5680 5679 5679 5679 5676 5674 5671 5668 5666 5665 5664 5664 5663 5662 5661 5661 5660 5660 5659 5659 5659 5659 5657 5658 5658 5655 5653 5652 5651 5653 5655 5656 5657 5658
5696 5692 5688 5684 5681 5678 5676 5674 5673 5672 5671 5671 5669 5667 5663 5660 5658 5657 5655 5655 5654 5653 5652 5652 5651 5651 5651 5651 5651 5651 5651 5650 5648 5648 5649 5649 5648 5645 5643 5644 5646 5647 5648
5692 5687 5683 5679 5676 5673 5669 5666 5665 5664 5663 5662 5659 5657 5654 5651 5649 5648 5646 5645 5644 5644 5643 5642 5642 5642 5641 5641 5641 5642 5642 5642 5642 5640 5640 5639 5639 5640 5637 5635 5635 5636 5638
5688 5682 5678 5673 5668 5665 5662 5659 5656 5654 5653 5651 5649 5646 5644 5641 5640 5638 5636 5635 5634 5634 5633 5633 5633 5632 5632 5631 5632 5633 5633 5634 5634 5633 5633 5632 5632 5631 5630 5628 5627 5626 5627
5681 5676 5670 5665 5661 5657 5654 5651 5648 5645 5643 5641 5639 5637 5635 5633 5630 5628 5627 5625 5624 5623 5623 5623 5624 5624 5623 5623 5623 5624 5624 5625 5625 5625 5625 5625 5626 5626 5625 5623 5619 5618 5617
5675 5669 5665 5660 5655 5651 5646 5643 5639 5636 5634 5632 5630 5628 5626 5624 5621 5619 5617 5616 5615 5614 5615 5615 5615 5615 5615 5615 5615 5615 5616 5616 5617 5617 5617 5617 5618 5619 5618 5617 5614 5611 5608
5667 5661 5657 5652 5647 5643 5638 5635 5631 5627 5625 5623 5621 5618 5616 5614 5612 5610 5609 5607 5607 5607 5607 5607 5606 5606 5606 5606 5607 5607 5607 5608 5608 5608 5609 5610 5610 5611 5611 5611 5610 5608 5604
5658 5653 5649 5644 5639 5634 5630 5627 5623 5619 5617 5614 5612 5609 5606 5605 5602 5601 5599 5599 5598 5598 5598 5598 5598 5598 5598 5598 5598 5598 5598 5599 5599 5600 5600 5601 5602 5602 5602 5602 5602 5602 5600
5653 5647 5642 5637 5631 5626 5622 5617 5613 5609 5606 5604 5601 5599 5596 5594 5593 5591 5590 5590 5589 5589 5589 5588 5588 5589 5589 5589 5589 5589 5590 5590 5591 5591 5592 5593 5594 5594 5594 5594 5593 5593 5592
5646 5639 5633 5627 5622 5617 5612 5607 5603 5600 5596 5593 5590 5588 5586 5584 5583 5581 5581 5581 5580 5580 5579 5579 5579 5579 5580 5580 5580 5581 5581 5581 5582 5582 5583 5584 5585 5585 5585 5585 5585 5584 5584
5640 5632 5625 5619 5613 5608 5603 5598 5593 5589 5586 5584 5580 5578 5576 5574 5573 5572 5571 5571 5570 5569 5569 5569 5569 5569 5570 5571 5571 5572 5572 5573 5573 5573 5574 5575 5575 5575 5576 5576 5576 5575 5575
5633 5625 5617 5611 5604 5598 5593 5588 5584 5580 5577 5574 5571 5568 5567 5565 5563 5562 5562 5561 5560 5560 5559 5559 5559 5560 5561 5561 5562 5563 5564 5564 5564 5565 5566 5567 5567 5568 5568 5568 5568 5567 5566
5624 5617 5609 5602 5596 5589 5585 5580 5576 5572 5569 5565 5562 5560 5558 5557 5555 5554 5553 5552 5552 5551 5550 5550 5551 5551 5552 5553 5553 5555 5555 5555 5556 5557 5558 5559 5560 5561 5562 5562 5560 5560 5558
5617 5610 5603 5596 5589 5583 5578 5573 5568 5564 5561 5558 5556 5553 5551 5549 5547 5546 5545 5545 5543 5542 5542 5542 5542 5542 5543 5544 5546 5547 5547 5547 5547 5548 5549 5550 5551 5553 5554 5555 5554 5554 5553
5612 5604 5597 5590 5582 5576 5571 5565 5561 5557 5555 5552 5550 5547 5545 5543 5541 5540 5539 5537 5536 5535 5534 5534 5534 5533 5534 5536 5537 5539 5539 5538 5538 5539 5541 5542 5543 5545 5545 5546 5547 5547 5546
5606 5598 5589 5581 5575 5569 5564 5559 5555 5552 5549 5546 5544 5542 5539 5537 5535 5533 5532 5531 5529 5527 5527 5526 5526 5526 5527 5529 5530 5531 5531 5530 5530 5531 5533 5534 5534 5536 5538 5539 5539 5539 5539
5599 5591 5583 5576 5569 5564 5559 5554 5549 5547 5544 5541 5539 5537 5535 5532 5530 5528 5526 5525 5523 5522 5521 5520 5520 5520 5520 5522 5523 5524 5523 5522 5523 5524 5525 5527 5528 5529 5531 5532 5532 5531 5531
5592 5584 5577 5570 5564 5559 5555 5550 5545 5542 5539 5536 5534 5532 5530 5528 5525 5523 5521 5520 5519 5517 5516 5515 5515 5515 5515 5516 5517 5518 5517 5516 5516 5517 5519 5520 5522 5523 5525 5525 5525 5524 5524
5586 5580 5572 5566 5560 5556 5552 5546 5542 5538 5536 5534 5531 5528 5526 5524 5522 5519 5518 5516 5515 5513 5512 5511 5511 5511 5511 5512 5512 5513 5512 5511 5512 5513 5513 5515 5517 5519 5520 5521 5521 5520 5521
5580 5575 5568 5561 5557 5553 5548 5543 5538 5536 5533 5531 5528 5526 5523 5522 5520 5516 5514 5513 5511 5510 5508 5507 5507 5508 5508 5508 5509 5509 5510 5510 5509 5510 5511 5512 5515 5516 5517 5518 5519 5519 5519
5576 5570 5564 5558 5554 5550 5546 5541 5537 5535 5532 5528 5525 5523 5521 5519 5517 5515 5513 5510 5509 5507 5506 5505 5504 5505 5506 5507 5507 5508 5509 5509 5509 5509 5511 5512 5514 5515 5516 5518 5518 5519 5518
5572 5567 5561 5556 5551 5548 5544 5541 5537 5534 5530 5527 5524 5521 5519 5517 5515 5514 5512 5510 5508 5507 5506 5505 5504 5504 5505 5506 5507 5508 5508 5509 5510 5510 5511 5513 5515 5516 5517 5518 5518 5519 5518
5571 5566 5560 5555 5551 5548 5544 5541 5538 5534 5530 5526 5524 5521 5519 5516 5514 5512 5511 5511 5510 5509 5509 5508 5507 5506 5506 5508 5509 5509 5509 5510 5510 5511 5512 5513 5514 5515 5516 5517 5519 5520 5520
5570 5565 5560 5556 5552 5548 5545 5542 5539 5535 5531 5527 5525 5522 5519 5517 5515 5513 5512 5513 5513 5514 5513 5513 5512 5512 5512 5512 5512 5513 5513 5514 5514 5513 5512 5513 5514 5515 5516 5518 5520 5520 5521